| time (UTC) | temp F | wind direction | speed knots | gust knots | rain 1hr in | rain 24hr in | rain mn in | humidity % | barometer mb |
| 20260906050124 | 50 | 352 | 9.6 | 15.6 | 0.00 | 0.00 | 0.00 | 1005.5 | |
| 20260906044454 | 49 | 335 | 7.8 | 13.0 | 0.00 | 0.00 | 0.00 | 1005.4 | |
| 20260906042124 | 49 | 333 | 9.6 | 15.6 | 0.00 | 0.00 | 0.00 | 1005.1 | |
| 20260906040454 | 49 | 339 | 9.6 | 16.5 | 0.00 | 0.00 | 0.00 | 1004.9 | |
| 20260906034454 | 49 | 338 | 9.6 | 16.5 | 0.00 | 0.00 | 0.00 | 1004.5 | |
| 20260906032124 | 49 | 343 | 9.6 | 16.5 | 0.00 | 0.00 | 0.00 | 1004.2 | |
| 20260906030124 | 49 | 340 | 10.4 | 17.4 | 0.00 | 0.00 | 0.00 | 1004.0 | |
| 20260906024125 | 48 | 336 | 9.6 | 16.5 | 0.00 | 0.00 | 0.00 | 1003.8 | |
| 20260906022124 | 48 | 338 | 10.4 | 18.2 | 0.00 | 0.00 | 0.00 | 1003.4 | |
| 20260906020454 | 49 | 339 | 9.6 | 14.8 | 0.00 | 0.00 | 0.00 | 1003.3 | |
| 20260906014456 | 49 | 345 | 8.7 | 15.6 | 0.00 | 0.00 | 0.00 | 1003.1 | |
| 20260906012124 | 50 | 350 | 10.4 | 17.4 | 0.00 | 0.00 | 0.00 | 1002.8 | |
| 20260906010123 | 50 | 345 | 9.6 | 18.2 | 0.00 | 0.00 | 0.00 | 1002.7 | |
| 20260906004125 | 51 | 345 | 8.7 | 14.8 | 0.00 | 0.00 | 0.00 | 1002.4 | |
| 20260906002455 | 51 | 348 | 8.7 | 13.0 | 0.00 | 0.00 | 0.00 | 1002.2 | |
| 20260906000123 | 52 | 348 | 7.8 | 14.8 | 0.00 | 0.00 | 0.00 | 1001.9 | |
| 20260905234123 | 53 | 356 | 10.4 | 16.5 | 0.00 | 0.00 | 0.00 | 1001.7 | |
| 20260905232123 | 54 | 356 | 7.8 | 12.2 | 0.00 | 0.00 | 0.00 | 1001.5 | |
| 20260905230123 | 55 | 10 | 9.6 | 13.0 | 0.00 | 0.00 | 0.00 | 1001.3 | |
| 20260905224124 | 55 | 353 | 7.8 | 12.2 | 0.00 | 0.00 | 0.00 | 1001.1 | |
| 20260905222122 | 54 | 352 | 7.8 | 12.2 | 0.00 | 0.00 | 0.00 | 1001.1 | |
| 20260905220453 | 55 | 335 | 4.3 | 7.0 | 0.00 | 0.00 | 0.00 | 1000.9 | |
| 20260905214454 | 55 | 350 | 6.1 | 9.6 | 0.00 | 0.00 | 0.00 | 1000.7 | |
| 20260905212122 | 55 | 349 | 6.1 | 8.7 | 0.00 | 0.00 | 0.00 | 1000.5 | |
| 20260905210123 | 56 | 347 | 5.2 | 9.6 | 0.00 | 0.00 | 0.00 | 1000.3 | |
| 20260905204123 | 56 | 340 | 7.0 | 10.4 | 0.00 | 0.00 | 0.00 | 1000.1 | |
| 20260905202123 | 57 | 340 | 6.1 | 9.6 | 0.00 | 0.00 | 0.00 | 999.9 | |
| 20260905200122 | 58 | 337 | 7.8 | 11.3 | 0.00 | 0.00 | 0.00 | 999.6 | |
| 20260905194453 | 58 | 336 | 7.0 | 11.3 | 0.00 | 0.00 | 0.00 | 999.4 | |
| 20260905192123 | 59 | 331 | 7.0 | 12.2 | 0.00 | 0.00 | 0.00 | 999.3 | |
| 20260905190123 | 59 | 327 | 7.0 | 12.2 | 0.00 | 0.00 | 0.00 | 999.3 | |
| 20260905184123 | 59 | 323 | 7.0 | 10.4 | 0.00 | 0.00 | 0.00 | 999.1 | |
| 20260905180451 | 59 | 330 | 6.1 | 9.6 | 0.00 | 0.00 | 0.00 | 998.9 | |
| 20260905174122 | 59 | 330 | 6.1 | 9.6 | 0.00 | 0.00 | 0.00 | 998.7 | |
| 20260905172451 | 59 | 328 | 7.0 | 9.6 | 0.00 | 0.00 | 0.00 | 998.6 | |
| 20260905170122 | 60 | 326 | 7.8 | 11.3 | 0.00 | 0.00 | 0.00 | 998.3 | |
| 20260905164453 | 61 | 304 | 6.1 | 7.8 | 0.00 | 0.00 | 0.00 | 998.0 | |
| 20260905162124 | 61 | 312 | 6.1 | 9.6 | 0.00 | 0.00 | 0.00 | 997.8 | |
| 20260905160453 | 62 | 318 | 5.2 | 8.7 | 0.00 | 0.00 | 0.00 | 997.6 | |
| 20260905154123 | 62 | 326 | 5.2 | 8.7 | 0.00 | 0.00 | 0.00 | 997.4 | |
| 20260905152123 | 63 | 334 | 7.0 | 12.2 | 0.00 | 0.00 | 0.00 | 997.3 | |
| 20260905150121 | 64 | 281 | 3.5 | 7.8 | 0.00 | 0.00 | 0.00 | 997.2 | |
| 20260905144122 | 62 | 264 | 11.3 | 14.8 | 0.00 | 0.00 | 0.00 | 997.1 | |
| 20260905142122 | 62 | 258 | 13.0 | 15.6 | 0.00 | 0.00 | 0.00 | 996.8 | |
| 20260905140122 | 63 | 257 | 13.0 | 16.5 | 0.00 | 0.00 | 0.00 | 996.6 | |
| 20260905134121 | 64 | 261 | 13.9 | 19.1 | 0.00 | 0.00 | 0.00 | 996.5 | |
| 20260905132122 | 64 | 259 | 13.0 | 16.5 | 0.00 | 0.00 | 0.00 | 996.4 | |
| 20260905130456 | 65 | 258 | 13.0 | 15.6 | 0.00 | 0.00 | 0.00 | 996.4 | |
| 20260905124121 | 64 | 255 | 13.9 | 18.2 | 0.00 | 0.00 | 0.00 | 996.3 | |
| 20260905122122 | 65 | 256 | 13.9 | 17.4 | 0.00 | 0.00 | 0.00 | 996.2 | |
| 20260905120121 | 66 | 254 | 13.9 | 16.5 | 0.00 | 0.00 | 0.00 | 996.1 | |
| 20260905114121 | 66 | 244 | 13.0 | 14.8 | 0.00 | 0.00 | 0.00 | 996.0 | |
| 20260905112123 | 64 | 246 | 12.2 | 13.9 | 0.00 | 0.00 | 0.00 | 996.0 | |
| 20260905110120 | 64 | 241 | 11.3 | 13.0 | 0.00 | 0.00 | 0.00 | 995.9 | |
| 20260905104452 | 64 | 241 | 9.6 | 11.3 | 0.00 | 0.00 | 0.00 | 995.8 | |
| 20260905102452 | 62 | 312 | 1.7 | 4.3 | 0.00 | 0.00 | 0.00 | 995.6 | |
| 20260905100120 | 62 | 338 | 3.5 | 7.0 | 0.00 | 0.00 | 0.00 | 995.4 | |
| 20260905094450 | 61 | 339 | 4.3 | 7.0 | 0.00 | 0.00 | 0.00 | 995.3 | |
| 20260905092120 | 61 | 312 | 3.5 | 5.2 | 0.00 | 0.00 | 0.00 | 995.2 | |
| 20260905090120 | 60 | 303 | 4.3 | 7.8 | 0.00 | 0.00 | 0.00 | 995.1 | |
| 20260905084452 | 59 | 308 | 4.3 | 7.8 | 0.00 | 0.00 | 0.00 | 994.9 | |
| 20260905082120 | 58 | 332 | 2.6 | 6.1 | 0.00 | 0.00 | 0.00 | 994.9 | |
| 20260905080120 | 58 | 338 | 5.2 | 9.6 | 0.00 | 0.00 | 0.00 | 994.8 | |
| 20260905074450 | 58 | 330 | 4.3 | 7.0 | 0.00 | 0.00 | 0.00 | 994.7 | |
| 20260905072120 | 57 | 329 | 4.3 | 7.0 | 0.00 | 0.00 | 0.00 | 994.5 | |
| 20260905070122 | 57 | 330 | 5.2 | 7.8 | 0.00 | 0.00 | 0.00 | 994.4 | |
| 20260905064120 | 58 | 335 | 4.3 | 7.8 | 0.00 | 0.00 | 0.00 | 994.3 | |
| 20260905062120 | 57 | 333 | 2.6 | 5.2 | 0.00 | 0.00 | 0.00 | 994.1 | |
| 20260905060120 | 55 | 325 | 3.5 | 5.2 | 0.00 | 0.00 | 0.00 | 994.1 | |
| 20260905054120 | 55 | 309 | 1.7 | 4.3 | 0.00 | 0.00 | 0.00 | 994.0 | |
| 20260905052120 | 53 | 331 | 1.7 | 3.5 | 0.00 | 0.00 | 0.00 | 994.0 |